Location: *
(12.5665°N, 8.3471°E)
Time: 19:28:22
(UTC+00:00)

S3M - Pass Details

Date: 23 September 2019
Orbit: 949 x 1004 km, 83.0° (Epoch: 20 October)

Event Time Altitude Azimuth Distance (km) Brightness Sun altitude
Rises 03:32:41 0° 0° (N) 3,660 7.1 -25.9°
Reaches altitude 10° 03:35:11 10° 3° (N) 2,721 6.4 -25.3°
Maximum altitude 03:41:24 70° 86° (E) 1,043 4.2 -23.8°
Drops below altitude 10° 03:47:42 10° 169° (S) 2,755 6.4 -22.3°
Sets 03:50:14 0° 172° (S) 3,709 7.1 -21.7°
